Temp
15 16 17 16 15 14 14 16 16 18 19 16 18 19 20 20 20 20 13 13 12 13 15 17 18 19 20 20 21 21 21 21 21 21 20 20 20 20 19 19 19 19 19 18 18 18 18 18 17
14 16 16 13 14 15 14 14 16 16 15 16 17 18 19 19 14 13 12 12 12 13 14 15 17 18 19 20 20 21 21 21 21 21 20 20 19 20 19 19 19 19 19 18 18 18 18 17 17
14 15 13 12 12 14 14 14 13 14 13 14 15 16 15 15 13 12 12 12 12 13 13 14 13 17 18 19 20 20 20 20 20 20 20 19 19 19 19 19 19 19 19 18 18 18 18 17 16
14 12 11 12 12 12 14 12 12 13 14 12 12 14 14 12 13 12 12 12 13 13 14 14 12 13 16 19 20 20 20 20 20 20 20 19 19 19 19 19 19 19 19 18 17 18 17 17 16
11 8 10 11 11 12 11 10 12 11 11 12 12 13 12 13 12 11 11 12 12 12 13 13 12 11 12 15 18 20 20 20 20 20 20 19 19 19 19 19 19 18 18 18 17 16 16 16 15
8 8 10 12 9 9 10 9 11 10 10 11 11 11 12 13 12 12 12 12 11 12 12 12 13 13 11 12 15 19 20 20 20 20 19 19 19 19 19 19 19 19 17 16 16 16 15 15 15
7 7 8 7 8 8 9 9 9 9 9 10 10 10 12 12 12 11 11 11 11 11 12 11 12 12 12 11 13 14 19 20 20 19 19 19 19 19 19 19 19 18 17 16 16 16 15 15 15
6 6 6 6 7 9 8 8 9 9 9 10 11 10 11 11 11 11 11 11 11 11 11 11 11 11 12 11 10 12 15 18 19 19 19 19 19 19 19 19 18 18 17 16 16 16 15 15 15
6 6 6 6 6 8 7 7 8 9 9 8 10 10 11 10 10 9 9 10 10 11 11 11 10 10 11 11 9 10 13 15 19 19 19 19 19 18 18 18 18 18 17 16 16 15 15 15 15
6 6 7 7 7 7 7 7 7 7 8 8 8 9 8 9 8 8 9 9 10 10 10 10 10 9 10 10 10 9 11 12 17 19 19 18 18 18 17 18 18 17 16 16 15 15 15 15 14
6 7 6 7 7 7 6 6 6 7 6 8 8 9 9 8 8 8 8 9 9 9 9 9 9 9 9 9 10 8 10 10 13 18 19 18 18 18 18 17 17 16 16 15 15 15 15 15 15
7 6 6 6 7 6 6 6 6 6 7 8 7 7 7 7 7 7 7 8 8 7 7 8 8 8 9 9 9 8 8 9 9 11 17 18 17 17 17 16 16 15 15 15 15 15 15 15 14
6 6 6 6 6 5 5 5 5 6 7 7 6 6 7 6 6 5 4 4 4 4 4 5 7 8 8 8 8 10 8 7 8 10 11 18 17 17 17 16 15 15 15 15 15 15 15 14 14
5 5 5 5 5 5 5 6 6 7 6 7 7 7 6 3 2 2 2 2 2 2 2 3 6 7 7 8 7 8 8 8 9 9 10 11 17 17 16 15 15 15 16 15 15 15 15 14 14
5 5 4 5 6 6 6 5 5 6 6 6 6 6 2 1 0 -0 -0 -0 -0 -0 0 1 2 5 6 6 7 7 7 8 8 8 9 11 14 16 16 15 15 15 16 15 14 14 14 14 14
3 3 5 6 5 6 6 4 7 6 5 5 5 -0 0 0 -1 -1 -1 -1 -2 -2 -1 -1 1 3 4 6 7 7 8 8 8 8 8 9 12 15 16 15 14 15 16 15 13 14 13 13 13
2 4 3 4 5 6 5 5 6 5 3 3 0 -1 -1 -1 -1 -2 -2 -2 -3 -3 -3 -2 -0 -0 3 4 5 7 8 8 8 8 8 9 11 12 16 15 14 15 15 15 13 12 12 12 12
5 3 3 3 5 5 4 4 5 1 1 -0 -1 -2 -2 -2 -2 -3 -3 -3 -4 -4 -4 -3 -3 -2 1 2 4 7 7 8 8 8 9 9 10 12 15 15 14 14 14 13 12 11 11 11 11
4 2 2 3 4 4 4 4 5 3 0 -1 -1 -2 -2 -3 -3 -3 -3 -4 -4 -4 -4 -4 -4 -4 -3 -1 -0 2 3 4 7 8 9 10 10 10 12 14 14 13 14 14 13 11 10 9 10
3 2 2 3 4 4 4 4 3 1 -0 -1 -1 -1 -3 -3 -3 -3 -4 -4 -5 -5 -5 -5 -5 -5 -4 -3 -2 -1 1 3 4 7 9 9 10 11 12 14 13 13 14 12 11 10 9 9 10
2 2 1 3 3 3 3 4 2 0 -0 -0 -0 -2 -3 -4 -4 -4 -4 -5 -5 -5 -6 -6 -6 -6 -5 -3 -3 -2 -0 2 3 6 8 9 9 11 13 13 13 13 14 11 11 10 11 9 9
0 3 3 3 2 2 2 1 1 0 -0 -0 -1 -2 -3 -4 -4 -4 -4 -5 -6 -6 -7 -7 -7 -6 -5 -5 -4 -3 -2 -0 1 2 5 7 9 11 11 13 13 13 13 12 11 11 11 10 9
3 2 1 0 0 -2 0 -1 2 -2 -1 -1 -1 -2 -3 -4 -4 -4 -6 -6 -6 -7 -7 -7 -7 -6 -6 -6 -5 -4 -3 -2 -1 1 3 6 8 10 11 13 13 12 12 12 11 10 11 10 10
1 -2 -3 -5 -3 -2 -1 -1 4 -0 -1 -2 -3 -3 -4 -4 -5 -6 -7 -7 -7 -8 -8 -8 -7 -7 -7 -6 -5 -4 -4 -3 -2 -1 1 4 8 10 11 13 13 12 11 11 11 11 11 10 10
-4 -3 0 0 -2 3 -0 -1 2 -1 -5 -4 -3 -4 -5 -7 -8 -8 -8 -8 -8 -8 -8 -8 -8 -8 -7 -7 -6 -5 -4 -3 -3 -1 0 2 4 9 10 12 14 13 11 10 10 10 11 10 10
-7 -3 -0 2 0 1 -1 -0 2 -5 -7 -6 -6 -7 -7 -7 -8 -9 -9 -9 -8 -8 -8 -8 -9 -8 -8 -7 -7 -6 -5 -4 -3 -2 -1 0 2 6 10 11 13 12 11 10 10 9 9 10 10
-3 -3 -3 -3 -7 -3 -3 -4 -2 -6 -6 -6 -6 -6 -6 -7 -8 -9 -9 -9 -8 -8 -8 -8 -9 -9 -8 -8 -7 -6 -6 -5 -4 -3 -3 -1 0 3 8 10 12 11 11 11 10 9 9 9 10
-2 -2 -2 -5 -2 -1 -3 -5 3 -3 -4 -5 -6 -6 -7 -9 -9 -9 -9 -8 -8 -8 -8 -8 -8 -9 -9 -9 -8 -7 -7 -5 -5 -4 -3 -2 -0 2 6 10 11 11 11 11 10 9 9 8 8
-3 -3 -8 -5 -3 -1 -2 -1 -4 -2 -3 -3 -4 -6 -8 -9 -10 -10 -10 -8 -8 -8 -8 -9 -9 -9 -9 -9 -9 -8 -7 -6 -5 -4 -4 -3 -1 1 4 8 11 11 11 10 9 9 9 9 9
-6 -4 -5 -0 -3 -7 -6 -1 -3 -4 -5 -4 -4 -7 -10 -11 -11 -11 -11 -9 -9 -9 -9 -9 -9 -9 -9 -9 -9 -9 -8 -7 -6 -5 -5 -4 -3 -1 2 6 11 10 10 10 9 10 9 9 8
Height
817 817 817 818 838 845 853 847 842 837 835 838 832 829 828 823 826 836 841 838 833 825 818 812 812 815 816 816 815 815 817 817 820 823 825 828 829 831 834 836 838 840 841 842 845 847 848 848 849
818 818 819 827 842 845 853 848 843 844 847 840 834 831 830 828 836 840 838 836 833 828 821 816 813 813 815 815 816 815 816 818 819 822 826 828 830 832 834 837 839 840 842 844 846 847 850 851 852
820 820 827 836 847 846 847 847 850 847 847 845 842 839 838 839 842 845 844 838 835 829 825 818 813 811 813 815 815 815 816 818 819 821 823 828 830 832 834 836 839 841 842 844 847 848 851 853 855
821 825 836 841 850 852 846 853 851 850 846 851 853 846 844 843 844 845 843 839 834 830 826 820 815 811 808 812 814 815 816 817 819 820 822 825 829 832 834 836 839 841 843 845 847 849 852 855 856
825 835 846 851 852 850 853 858 853 857 855 854 856 848 850 844 843 843 840 839 833 830 826 822 820 814 809 805 813 813 815 816 817 821 822 824 827 831 834 836 838 841 843 847 848 850 853 855 856
837 842 849 847 858 857 858 860 854 860 861 857 856 856 848 841 840 839 838 837 835 831 828 823 820 815 811 805 805 811 812 814 815 818 821 823 826 829 832 835 838 840 843 847 850 852 854 856 857
842 850 859 870 866 864 860 860 862 865 863 857 859 856 845 842 840 839 838 836 832 831 828 825 820 816 812 809 807 802 811 811 814 816 819 823 825 828 831 834 837 840 842 846 850 853 856 857 858
846 854 871 877 869 859 865 863 862 863 861 858 857 850 845 841 841 839 836 834 831 828 828 824 821 816 814 812 808 804 799 810 811 814 817 821 825 827 830 833 836 839 842 846 850 853 856 857 859
846 858 868 870 874 861 864 866 862 859 858 859 856 852 848 843 842 840 834 832 831 828 825 822 821 818 811 812 808 806 796 801 810 812 816 820 824 827 830 832 835 839 843 846 850 853 855 857 859
851 861 861 863 863 863 864 866 863 862 858 855 850 845 845 843 842 838 834 830 830 827 822 822 821 820 817 810 809 802 800 805 805 810 811 817 820 824 828 832 835 838 843 846 850 853 855 857 859
857 859 863 862 861 861 862 862 858 855 853 849 848 844 843 844 840 837 833 830 828 826 823 819 817 817 811 813 808 807 807 809 800 807 810 812 816 820 824 830 834 837 842 846 849 852 854 856 859
858 861 860 861 861 859 861 859 858 854 848 846 847 845 842 840 838 835 832 829 829 825 822 818 817 816 813 809 808 813 801 809 805 799 806 808 813 815 818 823 829 834 838 842 845 848 852 856 860
860 862 860 861 862 859 857 857 856 849 845 844 844 843 841 840 838 837 834 831 830 828 822 820 814 809 808 805 798 798 800 804 802 798 799 804 809 812 815 818 823 828 833 837 841 846 850 854 859
863 862 861 859 858 858 856 853 851 841 842 839 839 839 840 843 844 838 835 832 829 831 827 822 812 811 808 812 798 800 805 796 792 799 796 800 803 807 811 814 818 822 829 834 838 843 847 852 858
865 864 862 858 857 855 853 851 848 840 840 838 836 838 842 845 845 842 839 836 830 823 823 817 812 810 802 803 805 803 801 793 802 801 793 797 798 802 805 808 812 816 824 829 835 842 846 850 855
869 869 862 855 857 853 855 848 838 837 839 837 838 846 845 844 845 843 838 836 834 827 822 813 809 804 803 795 796 791 792 795 799 798 794 801 794 795 798 802 807 811 818 826 832 837 844 849 853
877 868 876 861 854 854 854 842 836 836 841 841 845 848 847 845 844 843 839 834 831 829 824 818 811 812 803 802 806 802 795 796 801 795 793 784 785 781 786 794 801 805 811 821 828 834 840 845 852
862 876 867 867 855 853 851 838 833 842 842 844 845 848 847 845 843 842 839 834 828 826 826 822 816 815 800 805 798 784 784 793 799 788 788 784 778 789 784 786 792 799 804 813 824 831 839 845 850
868 877 872 859 853 856 847 831 827 833 841 843 843 845 846 845 843 841 839 835 828 823 818 819 821 817 808 809 799 785 793 794 795 793 797 785 783 786 781 776 782 792 794 804 815 825 832 841 848
869 872 872 857 850 851 844 827 828 835 838 841 841 843 846 844 842 840 837 833 829 824 820 813 808 807 813 809 802 794 793 791 783 785 783 784 783 774 780 770 772 781 789 800 808 814 825 836 842
869 870 871 864 855 850 845 828 830 835 837 836 838 841 844 844 840 837 835 832 828 824 821 818 815 811 804 801 797 794 799 788 781 780 778 782 783 778 767 773 765 774 780 790 798 806 812 821 835
878 860 859 861 867 865 857 855 836 832 834 833 835 839 841 843 840 837 834 831 828 824 821 817 813 809 807 805 804 801 802 790 782 778 774 773 766 766 760 761 759 761 771 783 789 798 806 813 822
860 861 869 873 875 889 868 879 820 841 829 831 832 836 838 839 838 835 832 830 827 823 819 817 814 810 807 806 801 800 794 788 784 776 768 765 768 764 760 761 760 758 761 772 780 790 800 806 810
865 880 887 897 894 892 872 874 810 830 828 828 831 834 834 834 834 833 830 826 821 819 816 813 812 808 802 801 802 799 792 787 781 783 774 769 762 754 759 756 755 758 753 761 770 781 790 797 805
884 888 882 876 890 848 866 876 817 824 834 828 827 830 831 831 831 829 827 822 818 812 810 808 806 803 799 794 792 790 789 782 782 779 777 769 763 760 751 750 750 754 757 760 765 773 784 791 798
904 887 885 874 875 859 870 853 810 829 830 829 828 829 826 825 827 827 824 821 817 812 807 804 800 797 794 790 784 779 779 780 776 774 771 761 760 752 748 747 742 745 754 759 756 771 780 785 791
889 890 891 897 921 891 872 855 820 826 826 826 825 823 820 819 821 823 820 818 815 812 806 802 797 793 791 787 782 780 778 778 773 766 758 752 750 746 747 745 744 739 747 750 757 764 773 779 784
871 879 888 906 892 873 861 869 797 816 816 817 819 816 815 817 817 819 817 813 812 810 806 801 796 790 787 787 784 780 774 768 764 759 753 750 750 746 737 739 742 737 739 746 750 750 762 773 777
876 879 905 893 887 872 862 820 808 798 801 803 804 808 812 813 812 813 812 810 807 806 803 799 794 788 782 778 774 774 767 757 752 752 751 748 744 738 733 735 735 733 732 738 742 749 758 764 772
871 868 872 855 877 898 888 807 793 796 799 797 797 802 808 810 808 808 808 806 803 801 799 796 793 788 782 776 770 763 760 757 753 748 743 740 736 732 730 728 730 731 727 729 735 742 749 757 765
Wind_Speed
3 6 5 6 4 4 1 3 3 4 4 4 6 3 4 3 3 1 16 33 36 34 36 25 12 22 25 28 27 29 30 28 30 29 28 28 27 27 24 26 25 24 23 22 21 20 21 21 22
6 7 5 3 4 3 2 3 2 5 7 9 6 7 4 4 5 3 13 34 36 33 40 33 19 13 25 26 27 29 31 31 32 30 28 28 27 27 25 26 24 24 23 22 21 21 19 20 19
9 3 3 3 3 3 3 2 4 7 9 10 6 4 5 3 5 4 15 27 33 36 39 41 31 12 18 28 30 29 30 32 32 31 30 29 28 27 26 27 25 24 24 23 22 20 17 17 17
3 6 3 3 4 3 2 4 8 4 5 10 8 9 2 3 3 11 22 29 38 36 41 41 38 26 20 27 30 31 31 33 32 32 32 31 29 28 28 28 26 23 23 21 21 21 20 18 16
7 3 4 3 2 2 2 3 8 8 4 6 10 8 11 2 6 21 28 32 35 38 40 40 36 34 29 15 27 34 31 34 34 33 33 32 31 30 29 29 29 27 23 21 20 19 20 19 18
4 2 3 2 3 2 2 7 2 9 7 12 7 12 7 4 14 35 37 33 28 34 38 39 39 37 36 26 17 30 35 34 35 34 33 33 33 31 31 30 31 28 24 23 21 21 19 19 18
5 3 3 3 2 4 2 2 4 4 6 5 9 10 7 14 26 35 38 35 30 30 35 37 37 37 36 31 18 18 34 36 35 34 34 33 33 33 34 33 32 27 25 25 23 22 19 20 19
4 4 4 1 2 3 2 3 2 4 5 7 4 5 6 15 35 33 35 35 30 32 31 32 32 34 34 35 28 31 12 35 35 34 34 34 34 35 35 35 32 27 25 25 23 23 21 20 20
2 4 3 6 6 3 1 5 4 1 9 4 6 11 21 35 27 30 29 28 25 28 32 28 26 29 32 38 33 29 18 9 35 35 34 35 35 36 35 36 33 27 26 26 25 23 22 21 21
4 3 6 4 4 3 2 3 8 4 9 13 18 19 19 22 23 25 24 25 23 24 29 24 23 21 27 32 31 32 28 18 19 36 37 37 35 39 37 35 32 28 28 27 25 23 22 23 23
2 3 4 2 4 3 2 4 2 6 5 12 15 19 23 22 22 21 21 25 22 25 23 22 24 23 31 28 28 31 27 29 20 33 39 38 37 39 40 37 33 30 31 26 27 27 24 24 25
3 3 2 1 3 4 4 4 5 7 10 12 15 20 19 18 17 18 19 19 24 20 21 19 21 23 24 26 26 23 26 31 27 20 31 38 36 40 40 41 35 33 32 30 31 32 27 25 25
2 1 3 2 4 7 7 9 6 10 14 14 13 11 12 14 15 13 16 16 18 20 25 25 21 21 21 24 26 30 31 30 33 26 29 39 38 38 40 38 38 35 35 37 35 33 30 28 26
3 1 6 4 5 5 5 5 1 5 4 9 9 11 9 13 14 15 20 22 23 19 21 25 21 19 20 23 20 26 28 30 34 32 23 31 42 40 38 37 38 39 38 37 36 35 33 31 28
1 3 5 2 1 3 2 6 7 8 5 10 11 11 8 11 14 15 15 18 21 26 23 24 24 21 17 20 20 21 22 27 26 31 30 21 10 42 41 40 39 44 41 39 37 36 35 33 31
3 3 4 1 4 3 6 7 6 6 6 13 12 8 9 10 11 14 16 16 18 20 25 24 25 26 23 22 24 25 24 19 26 29 32 31 26 25 44 42 40 46 44 41 39 39 36 34 33
5 2 2 6 3 2 3 14 6 4 6 8 8 8 8 9 12 15 17 17 17 18 20 24 25 24 26 25 21 15 17 19 23 29 28 31 29 29 47 43 42 50 48 44 41 36 37 33 31
3 3 4 6 3 5 15 23 16 1 1 2 4 6 7 9 10 15 18 17 18 19 17 19 20 21 26 28 26 20 20 20 22 23 27 33 32 30 36 45 44 49 49 45 41 35 28 28 31
3 4 7 6 6 4 10 23 18 4 2 1 2 5 7 10 11 13 15 18 19 20 23 23 20 19 21 25 25 24 26 24 25 19 21 26 29 31 33 45 49 46 52 51 48 38 37 29 34
4 3 5 8 2 8 9 28 9 2 3 3 2 5 6 10 11 15 16 20 21 20 21 25 25 24 18 18 19 18 28 26 29 26 24 21 23 32 29 39 50 51 47 44 46 44 35 25 40
3 4 3 5 9 6 11 9 3 4 3 4 2 3 4 8 12 14 18 20 22 22 23 21 22 21 21 17 23 18 22 24 22 21 22 24 26 30 21 29 49 50 50 48 51 48 42 33 36
2 4 3 8 8 4 9 6 5 3 7 8 5 3 5 7 10 14 19 20 22 23 22 22 23 20 17 17 16 16 18 20 23 28 27 29 31 29 25 24 50 50 52 49 50 50 46 38 38
4 3 3 2 1 3 1 0 7 3 6 7 6 4 5 7 9 12 17 17 19 21 22 22 21 20 18 16 14 18 18 17 23 27 27 27 29 29 28 24 34 47 51 53 51 48 43 42 43
3 4 5 3 2 2 2 3 5 4 5 2 4 5 4 8 9 12 14 15 17 20 21 22 20 22 21 19 15 13 18 19 20 24 26 28 25 28 33 28 35 31 39 48 52 52 48 43 40
6 5 4 5 3 4 4 2 11 6 7 5 6 6 5 6 7 8 12 16 20 25 23 22 23 23 22 23 20 17 15 18 19 21 23 23 27 22 28 28 42 41 34 40 40 49 48 44 41
2 5 4 5 3 4 2 7 6 5 5 6 6 7 7 6 5 7 13 17 21 24 25 24 23 24 23 22 23 22 18 17 20 21 25 25 29 26 21 24 38 43 46 45 42 38 40 46 43
2 1 1 4 1 1 3 7 11 3 6 7 10 9 10 6 5 7 15 16 19 23 25 26 26 23 22 22 22 22 20 18 20 23 25 28 32 33 21 26 37 42 48 47 49 50 40 34 41
4 5 4 2 3 6 5 6 10 5 8 12 12 14 11 6 6 6 11 16 17 21 23 25 25 25 23 22 20 22 23 21 20 21 25 28 32 32 29 23 37 44 47 50 47 43 48 45 39
4 3 3 2 3 4 4 6 7 8 10 12 14 10 8 7 6 6 10 15 16 19 22 24 27 28 27 24 26 23 23 22 22 21 23 27 30 31 28 22 31 39 44 45 46 41 43 45 42
4 7 7 4 6 4 2 10 2 7 5 8 9 8 6 7 7 6 11 13 14 18 20 23 25 28 28 29 25 25 25 21 21 22 23 27 30 30 32 26 34 34 40 41 41 37 38 42 41
Wind_Direction
87 125 94 64 85 75 134 243 314 1 359 4 320 320 263 298 316 288 321 357 354 356 355 349 290 238 222 213 201 194 192 188 181 178 173 169 166 160 156 150 146 141 135 127 123 118 118 118 118
99 133 60 87 96 136 208 300 261 21 337 331 343 334 22 281 41 62 16 354 354 356 359 355 335 259 233 220 209 199 195 191 184 179 176 172 169 164 156 153 152 146 142 137 133 133 129 126 123
93 85 79 82 89 144 161 146 352 358 27 11 355 345 350 333 69 21 358 352 353 356 356 357 354 306 259 227 214 205 196 193 189 181 178 175 174 168 162 156 155 153 150 147 146 141 139 134 124
60 27 40 83 136 217 192 19 344 9 15 41 347 290 333 40 78 3 355 356 350 352 351 354 354 357 332 234 218 212 201 193 192 186 183 179 178 173 167 162 160 163 161 158 149 152 146 147 132
46 54 73 86 156 188 80 36 51 61 14 348 349 303 308 238 23 4 355 353 353 347 346 348 355 354 357 353 238 216 208 198 193 191 187 183 181 177 173 171 166 164 161 163 154 149 145 139 141
49 78 80 168 231 274 28 352 74 46 356 329 344 317 279 292 349 344 343 348 352 346 344 345 348 349 352 349 357 226 212 202 195 190 189 186 182 181 179 175 171 172 163 153 151 154 146 143 140
101 72 106 123 258 307 107 323 71 24 336 303 333 297 275 296 335 336 335 336 339 345 342 343 345 343 344 345 341 352 223 208 200 194 190 189 184 182 183 179 176 175 164 157 156 157 151 145 143
96 89 104 165 185 259 131 1 318 19 289 302 286 262 299 306 323 322 327 328 330 338 345 344 348 342 340 346 339 347 17 213 204 199 194 190 186 185 184 181 179 178 167 160 162 161 157 152 149
84 72 130 174 170 241 62 358 307 237 276 265 254 274 286 296 315 322 325 327 329 338 346 343 352 348 343 332 338 335 348 284 208 201 196 191 186 188 185 182 182 178 168 163 161 164 165 158 152
59 81 190 171 196 242 298 247 288 262 279 276 289 283 295 304 317 315 321 319 322 332 345 339 350 356 346 342 334 338 349 344 221 204 196 191 187 187 182 185 182 178 169 164 165 166 171 160 154
75 139 174 220 232 267 224 279 253 288 283 283 290 299 301 307 309 309 316 316 322 329 345 346 344 343 344 340 339 336 335 335 3 206 199 190 188 186 185 182 182 175 168 166 167 175 177 167 162
115 146 180 203 235 291 290 270 279 236 255 277 288 291 296 302 309 310 317 327 341 351 351 345 340 334 345 342 333 332 337 326 327 13 207 189 191 184 180 179 174 170 170 170 177 180 176 168 166
74 198 239 230 255 268 275 253 253 260 267 284 288 294 300 310 327 353 4 4 357 359 349 347 348 336 342 341 337 334 326 321 326 328 360 191 195 186 181 178 176 173 179 181 182 178 175 170 168
189 302 286 301 285 258 276 278 16 260 270 303 307 310 328 45 23 8 3 353 350 350 349 343 357 357 336 336 338 332 325 325 320 318 323 359 198 189 185 178 175 180 185 184 184 179 175 171 170
57 311 311 243 242 277 9 264 232 255 296 293 308 310 62 30 16 7 356 351 348 342 344 345 346 345 349 337 332 323 333 325 317 316 315 305 242 194 187 182 181 184 187 188 182 180 177 172 171
54 42 3 266 319 267 90 267 263 276 329 306 323 29 359 4 16 356 351 355 352 347 341 344 345 348 339 336 328 327 327 325 307 311 310 304 292 223 193 185 184 185 188 189 183 179 175 174 172
12 300 196 306 221 309 185 283 244 319 321 315 349 4 356 351 4 357 348 351 354 353 348 341 347 340 343 336 318 320 322 311 301 305 312 309 306 343 189 188 183 191 184 187 184 177 177 173 171
289 320 280 236 262 234 279 268 278 217 119 315 346 356 357 350 354 346 342 345 351 354 352 349 348 339 345 333 330 329 315 309 309 321 312 307 311 284 199 187 186 185 180 180 182 175 173 171 168
170 195 242 256 260 257 272 287 292 261 154 257 340 360 348 341 333 344 341 343 348 356 352 349 343 343 348 340 339 341 318 305 304 303 289 306 298 303 333 184 184 181 181 183 182 170 167 162 169
188 273 266 289 222 321 299 294 314 160 190 194 327 352 345 337 341 349 349 347 348 350 351 347 343 342 341 332 328 323 307 302 305 305 301 306 294 302 306 196 180 182 178 174 175 174 163 168 170
215 201 249 263 323 304 327 280 270 196 200 214 233 4 338 335 337 342 350 347 344 346 345 342 337 335 337 342 328 329 309 305 312 309 303 295 287 284 288 227 182 182 180 177 179 177 174 169 176
310 178 257 308 360 305 48 286 274 243 241 228 261 323 333 332 337 342 346 346 343 340 339 338 336 336 336 337 328 319 309 307 307 306 298 297 297 285 304 256 188 182 182 182 180 182 181 173 175
220 23 16 29 219 11 146 74 271 355 281 222 217 266 330 332 333 335 339 338 337 337 338 337 332 332 333 331 331 315 310 308 306 305 307 299 288 276 289 260 203 186 182 185 182 181 182 184 178
54 48 56 53 93 343 219 148 264 212 209 192 204 236 307 321 318 319 325 333 336 341 339 339 335 333 334 330 327 320 310 311 310 299 299 292 291 280 265 249 205 195 188 183 183 183 185 185 186
66 49 324 340 1 240 154 236 255 249 225 211 211 252 264 278 297 307 321 328 333 341 340 339 337 334 334 330 324 325 315 309 301 297 291 292 288 268 258 250 207 199 194 190 183 182 186 186 186
132 146 161 255 254 297 8 238 249 220 247 227 234 254 271 273 283 294 306 324 330 335 339 337 336 333 333 330 325 322 320 308 301 297 292 289 281 283 258 269 203 196 197 195 183 188 192 188 190
206 128 167 90 158 305 234 284 275 215 241 235 246 249 256 260 272 282 304 323 331 333 334 336 336 332 332 328 326 318 314 307 302 301 300 293 288 281 272 265 208 191 194 193 188 187 191 191 191
143 142 76 30 280 261 266 277 245 248 234 228 239 240 245 255 260 270 293 316 329 331 332 334 336 335 330 326 325 316 312 310 306 304 300 295 289 282 266 255 233 200 194 196 191 187 192 192 192
155 194 38 130 173 222 289 241 217 220 205 209 226 223 228 251 256 263 287 309 322 329 333 335 335 336 335 329 326 319 316 316 313 307 302 297 293 282 279 252 231 203 195 191 189 188 190 193 196
175 187 160 173 218 234 277 269 239 223 236 212 223 214 214 230 248 252 281 302 318 328 329 331 333 331 335 331 324 321 318 318 312 309 307 302 295 285 265 256 236 211 194 188 188 188 191 192 193